Retour au catalogue

STARLINK-6271

ActifCommunicationsVLEO
NORAD 56397·PAYLOAD·🇺🇸 United States

Lancé May 4, 2023 depuis Cape Canaveral Space Force Station

Loading…

Prochains Passages (prochaines 24 heures)

TLE

FraisSource: CelesTrak SupGP

Époque: Sep 15, 2026, 01:58 UTC

1 56397C 23061Z   26258.08243056 -.00027164  00000+0 -98410-3 0  2587
2 56397  42.9993 197.7586 0000636 246.8191 203.8698 15.27584781    12

Suivez STARLINK-6271 en temps réel avec AllMySat

Download on the App Store